Stations météo

Publicité
Clermont-Ferrand, France (7460): Température de l'air & dewpoint: 10.01.2019 17:00:00 - 16.01.2019 17:00:00 (CET)Clermont-Ferrand, France (7460): Température de l'air 5cm: 10.01.2019 17:00:00 - 16.01.2019 17:00:00 (CET)Clermont-Ferrand, France (7460): Température de l'air -20cm & Température de l'air -100cm: 10.01.2019 17:00:00 - 16.01.2019 17:00:00 (CET)Clermont-Ferrand, France (7460): Vitesse du vent & gusts: 10.01.2019 17:00:00 - 16.01.2019 17:00:00 (CET)Clermont-Ferrand, France (7460): Direction du vent: 10.01.2019 17:00:00 - 16.01.2019 17:00:00 (CET)Clermont-Ferrand, France (7460): reduced air pressure: 10.01.2019 17:00:00 - 16.01.2019 17:00:00 (CET)Clermont-Ferrand, France (7460): visibility: 10.01.2019 17:00:00 - 16.01.2019 17:00:00 (CET)Clermont-Ferrand, France (7460): Ensoleillement: 10.01.2019 17:00:00 - 16.01.2019 17:00:00 (CET)Clermont-Ferrand, France (7460): Quantités de précipitations: 10.01.2019 17:00:00 - 16.01.2019 17:00:00 (CET)
Date & Time tt [°C] td [°C] tt 5cm [°C] tt -20cm [°C] tt -100cm [°C] ff [km/h] ff [knt] fx [km/h] fx [knt] dd ppp [hPa] vv [km] sd [min] rr [mm]
16.01.2019 17:00:00 - - - - - - - - - - - - - -
16.01.2019 16:00:00 12,4 -1,5 11,4 6,4 9,4 13 7 23 12 SSE 1011,2 58 19 0,0
16.01.2019 15:00:00 14,5 -3,3 13,9 6,4 9,4 9 5 15 8 NE 1011,5 55 60 0,0
16.01.2019 14:00:00 12,8 -1,2 7,7 6,4 9,3 6 3 25 13 SE 1012,2 48 58 0,0
16.01.2019 13:00:00 7,2 -2,0 7,2 6,5 9,4 4 2 30 16 NE 1013,9 44 23 0,0
16.01.2019 12:00:00 7,3 -2,5 6,2 6,5 9,3 5 3 40 21 ESE 1015,1 39 45 0,0
16.01.2019 11:00:00 5,5 -3,6 5,4 6,5 9,3 16 9 39 21 S 1016,1 43 42 0,0
16.01.2019 10:00:00 3,0 -2,7 0,9 6,6 9,3 21 11 55 30 SSW 1016,8 20 55 0,0
16.01.2019 09:00:00 1,1 -3,4 -1,6 6,6 9,3 20 11 44 24 S 1017,0 20 22 0,0
16.01.2019 08:00:00 0,2 -3,9 -1,1 6,6 9,3 13 7 41 22 S 1017,3 54 0 0,0
16.01.2019 07:00:00 0,4 -3,3 -1,4 6,7 9,4 12 6 38 20 S 1017,2 37 0 0,0
16.01.2019 06:00:00 -0,4 -3,4 -1,7 6,7 9,3 8 5 32 17 WSW 1018,1 33 0 0,0
16.01.2019 05:00:00 -0,4 -3,4 -3,4 6,7 9,4 16 9 36 20 SW 1018,4 35 0 0,0
16.01.2019 04:00:00 -0,3 -3,3 -3,5 6,7 9,3 5 3 28 15 N 1019,4 45 0 0,0
16.01.2019 03:00:00 -1,6 -3,6 -3,7 6,7 9,3 8 4 32 18 SSW 1020,7 15 0 0,0
16.01.2019 02:00:00 -0,4 -3,1 -2,5 6,8 9,4 19 10 35 19 S 1020,7 30 0 0,0
16.01.2019 01:00:00 -0,5 -2,9 -3,1 6,8 9,3 14 7 29 16 S 1021,3 23 0 0,0
16.01.2019 00:00:00 0,3 -2,4 -1,6 6,8 9,4 20 11 25 14 S 1021,8 20 0 0,0
15.01.2019 23:00:00 0,3 -1,9 -4,2 6,8 9,4 4 2 10 5 SE 1022,4 18 0 0,0
15.01.2019 22:00:00 -0,6 -2,7 -4,5 6,8 9,4 4 2 6 3 W 1023,0 6 0 0,0
15.01.2019 21:00:00 -0,5 -2,6 -3,7 6,8 9,4 7 4 11 6 SW 1023,3 6 0 0,0
15.01.2019 20:00:00 1,0 -1,9 -4,4 6,8 9,4 7 4 10 5 SW 1023,7 20 0 0,0
15.01.2019 19:00:00 2,8 -1,0 -3,7 6,7 9,3 4 2 11 6 W 1023,4 27 0 0,0
15.01.2019 18:00:00 3,3 -1,5 -2,5 6,7 9,3 9 5 12 7 NE 1023,3 45 4 0,0
15.01.2019 17:00:00 5,8 -0,7 5,3 6,7 9,4 6 4 16 9 NE 1023,3 56 60 0,0
15.01.2019 16:00:00 7,5 -0,2 10,1 6,8 9,4 7 4 20 11 E 1023,4 50 60 0,0
15.01.2019 15:00:00 7,8 -0,9 11,4 6,7 9,4 7 4 19 10 NE 1023,5 38 60 0,0
15.01.2019 14:00:00 7,9 -0,6 11,1 6,8 9,4 8 4 17 9 SSE 1024,2 41 60 0,0
15.01.2019 13:00:00 7,4 -1,6 7,7 6,8 9,4 6 4 15 8 E 1025,0 51 24 0,0
15.01.2019 12:00:00 7,7 -0,8 11,1 6,8 9,3 4 2 10 6 SE 1025,7 46 60 0,0
15.01.2019 11:00:00 6,3 0,0 5,4 6,8 9,3 4 2 6 4 W 1026,4 29 14 0,0
15.01.2019 10:00:00 3,9 1,1 1,3 6,8 9,3 2 1 6 3 WSW 1026,7 20 0 0,0
15.01.2019 09:00:00 1,7 -0,2 -2,9 6,8 9,4 3 1 6 3 SE 1026,6 13 0 0,0
15.01.2019 08:00:00 0,6 -1,6 -2,9 6,8 9,4 2 1 5 3 SE 1026,2 10 0 0,0
15.01.2019 07:00:00 3,1 0,7 0,4 6,8 9,3 4 2 5 3 WSW 1025,8 25 0 0,0
15.01.2019 06:00:00 3,7 1,1 1,8 6,8 9,3 3 2 4 2 WNW 1025,8 24 0 0,0
15.01.2019 05:00:00 3,7 1,2 2,1 6,8 9,4 0 0 5 3 N 1026,1 27 0 0,0
15.01.2019 04:00:00 4,4 1,2 2,2 6,7 9,3 2 1 4 2 W 1026,2 20 0 0,0
15.01.2019 03:00:00 3,7 1,1 2,9 6,8 9,4 3 2 8 4 SE 1026,3 27 0 0,0
15.01.2019 02:00:00 4,5 0,8 2,9 6,7 9,4 4 2 8 4 E 1025,9 36 0 0,0
15.01.2019 01:00:00 5,9 0,4 4,1 6,7 9,4 6 3 9 5 E 1026,0 38 0 0,0
15.01.2019 00:00:00 5,6 0,8 4,6 6,7 9,4 4 2 11 6 NNW 1026,0 47 0 0,0
14.01.2019 23:00:00 6,1 0,6 5,2 6,7 9,4 5 3 14 8 N 1025,6 25 0 0,0
14.01.2019 22:00:00 6,2 0,7 5,3 6,7 9,4 6 4 23 12 NNW 1025,5 49 0 0,0
14.01.2019 21:00:00 6,6 0,9 6,0 6,6 9,4 11 6 22 12 NNW 1025,1 50 0 0,0
14.01.2019 20:00:00 6,8 0,5 6,0 6,6 9,4 9 5 16 9 NNW 1024,6 53 0 0,0
14.01.2019 19:00:00 7,1 0,3 6,4 6,6 9,4 11 6 22 12 NNW 1024,0 44 0 0,0
14.01.2019 18:00:00 7,5 -0,2 6,8 6,6 9,4 11 6 24 13 NNW 1023,7 56 0 0,0
14.01.2019 17:00:00 7,9 -0,6 7,6 6,6 9,4 9 5 27 15 N 1023,2 60 0 0,0
14.01.2019 16:00:00 8,3 0,0 8,3 6,5 9,4 11 6 27 14 NNW 1022,7 57 0 0,0
14.01.2019 15:00:00 8,6 1,0 9,1 6,5 9,4 17 9 32 17 N 1022,3 53 4 0,0
14.01.2019 14:00:00 8,8 0,5 9,3 6,6 9,4 20 11 37 20 NNW 1022,0 50 18 0,0
14.01.2019 13:00:00 9,0 1,6 9,2 6,5 9,4 18 10 32 18 NNW 1021,6 47 1 0,0
14.01.2019 12:00:00 8,4 3,4 7,4 6,5 9,4 11 6 31 17 NNW 1021,5 32 0 0,2
14.01.2019 11:00:00 8,7 3,9 8,7 6,5 9,4 11 6 26 14 NNW 1021,1 19 0 0,0
14.01.2019 10:00:00 8,7 3,3 8,0 6,4 9,4 13 7 31 17 NW 1020,7 50 0 0,0
14.01.2019 09:00:00 8,5 3,1 7,8 6,4 9,4 12 6 31 17 NW 1019,9 60 0 0,0
14.01.2019 08:00:00 8,4 3,2 7,2 6,4 9,4 16 8 29 16 WNW 1018,9 60 0 0,0
14.01.2019 07:00:00 8,3 3,7 6,6 6,4 9,4 14 7 36 19 NW 1018,6 60 0 0,0
14.01.2019 06:00:00 7,7 5,0 6,7 6,4 9,4 21 11 53 29 WNW 1018,3 6 0 0,0
14.01.2019 05:00:00 8,6 4,0 7,7 6,3 9,4 16 9 32 17 W 1018,0 60 0 0,0
14.01.2019 04:00:00 8,6 3,8 7,5 6,3 9,4 21 11 35 19 WNW 1018,2 60 0 0,0
14.01.2019 03:00:00 8,4 3,4 7,6 6,3 9,4 22 12 44 24 WNW 1018,0 60 0 0,0
14.01.2019 02:00:00 9,0 3,0 8,6 6,2 9,4 20 11 46 25 W 1017,8 60 0 0,0
14.01.2019 01:00:00 9,3 2,8 8,7 6,2 9,4 13 7 47 25 WSW 1017,6 60 0 0,0
14.01.2019 00:00:00 9,2 3,2 8,6 6,1 9,4 22 12 50 27 WSW 1017,8 60 0 0,0
13.01.2019 23:00:00 9,7 3,4 9,1 6,1 9,4 24 13 48 26 W 1018,7 60 0 0,0
13.01.2019 22:00:00 9,9 4,5 8,4 6,1 9,4 13 7 45 24 W 1019,1 60 0 0,0
13.01.2019 21:00:00 9,9 4,7 8,7 6,0 9,4 18 10 37 20 WNW 1018,7 60 0 0,0
13.01.2019 20:00:00 10,5 4,6 8,9 6,0 9,4 23 12 57 31 W 1018,7 60 0 0,0
13.01.2019 19:00:00 10,9 4,6 10,0 6,0 9,4 12 7 46 25 SSW 1018,5 60 0 0,0
13.01.2019 18:00:00 10,9 4,8 10,0 5,9 9,4 21 12 40 22 W 1019,0 60 0 0,0
13.01.2019 17:00:00 11,8 5,0 10,8 5,9 9,5 9 5 29 16 NW 1019,1 60 0 0,0
13.01.2019 16:00:00 11,9 5,3 11,9 5,9 9,4 11 6 25 13 WSW 1019,8 60 22 0,0
13.01.2019 15:00:00 12,9 5,6 14,2 5,8 9,5 12 6 31 17 WNW 1020,3 57 60 0,0
13.01.2019 14:00:00 13,0 4,9 13,5 5,8 9,5 15 8 34 18 WNW 1020,5 50 39 0,0
13.01.2019 13:00:00 12,3 4,8 13,4 5,8 9,5 12 7 23 12 NNW 1021,8 58 15 0,0
13.01.2019 12:00:00 11,3 4,7 11,7 5,8 9,4 6 3 14 8 E 1022,6 58 14 0,0
13.01.2019 11:00:00 9,8 4,2 9,0 5,8 9,5 6 3 11 6 E 1023,5 58 0 0,0
13.01.2019 10:00:00 8,5 4,3 7,6 5,8 9,4 2 1 18 10 NNW 1024,0 60 0 0,0
13.01.2019 09:00:00 7,9 3,7 6,7 5,8 9,5 5 3 15 8 SSE 1024,1 60 0 0,0
13.01.2019 08:00:00 7,8 3,6 6,9 5,7 9,5 7 4 19 11 NW 1023,7 60 0 0,0
13.01.2019 07:00:00 7,7 3,2 7,1 5,7 9,4 10 6 28 15 NW 1023,6 60 0 0,0
13.01.2019 06:00:00 7,8 3,1 6,7 5,7 9,5 8 4 24 13 E 1023,8 60 0 0,0
13.01.2019 05:00:00 7,5 2,6 6,7 5,7 9,5 6 3 30 16 WSW 1024,0 60 0 0,0
13.01.2019 04:00:00 7,3 2,4 6,6 5,7 9,5 8 4 35 19 WNW 1024,7 60 0 0,0
13.01.2019 03:00:00 7,7 2,6 6,0 5,7 9,5 11 6 31 17 WNW 1025,0 60 0 0,0
13.01.2019 02:00:00 6,9 2,2 5,8 5,6 9,5 6 3 20 11 SE 1025,3 60 0 0,0
13.01.2019 01:00:00 6,8 2,1 5,9 5,7 9,5 6 3 32 17 WNW 1025,8 60 0 0,0
13.01.2019 00:00:00 6,5 2,2 5,9 5,6 9,5 18 10 29 16 W 1026,2 60 0 0,0
12.01.2019 23:00:00 6,4 1,7 5,5 5,6 9,5 16 8 31 17 W 1026,9 60 0 0,0
12.01.2019 22:00:00 6,1 1,0 4,7 5,6 9,5 17 9 32 17 W 1027,7 60 0 0,0
12.01.2019 21:00:00 5,3 1,2 4,5 5,6 9,5 5 3 20 11 ESE 1028,0 22 0 0,0
12.01.2019 20:00:00 6,0 0,9 5,5 5,5 9,5 11 6 18 10 WNW 1028,7 44 0 0,0
12.01.2019 19:00:00 6,0 0,7 5,0 5,5 9,5 5 3 18 10 NNW 1029,3 53 0 0,0
12.01.2019 18:00:00 6,0 1,1 5,4 5,5 9,5 10 5 20 11 WNW 1029,2 56 0 0,0
12.01.2019 17:00:00 6,6 0,3 6,3 5,5 9,5 9 5 18 10 NW 1028,8 58 0 0,0
12.01.2019 16:00:00 6,9 1,0 6,8 5,5 9,5 8 5 26 14 WNW 1028,8 49 0 0,0
12.01.2019 15:00:00 7,1 1,4 7,1 5,5 9,5 6 3 31 17 NNW 1028,6 53 0 0,0
12.01.2019 14:00:00 6,9 2,0 6,7 5,5 9,5 8 4 20 11 NW 1029,2 51 0 0,0
12.01.2019 13:00:00 6,5 3,1 7,0 5,5 9,6 10 5 18 10 NNE 1030,1 15 0 0,0
12.01.2019 12:00:00 5,6 3,3 5,5 5,5 9,5 7 4 17 9 N 1030,7 14 0 0,0
12.01.2019 11:00:00 4,0 2,5 3,7 5,5 9,6 4 2 7 4 NE 1031,3 7 0 0,0
12.01.2019 10:00:00 2,8 1,8 1,9 5,5 9,6 0 0 6 4 N 1031,6 3,7 0 0,0
12.01.2019 09:00:00 2,0 1,1 1,4 5,5 9,6 3 2 5 3 SSE 1031,4 3,8 0 0,0
12.01.2019 08:00:00 1,9 1,0 1,6 5,5 9,6 2 1 7 4 W 1031,0 4,0 0 0,0
12.01.2019 07:00:00 1,8 0,8 1,2 5,5 9,6 6 3 8 5 ENE 1030,9 2,7 0 0,0
12.01.2019 06:00:00 1,4 0,5 1,1 5,5 9,6 4 2 8 4 E 1030,9 2,2 0 0,0
12.01.2019 05:00:00 1,4 0,5 1,2 5,5 9,6 3 2 6 3 WNW 1031,3 2,2 0 0,0
12.01.2019 04:00:00 1,3 0,3 1,0 5,5 9,6 4 2 5 3 E 1031,6 2,5 0 0,0
12.01.2019 03:00:00 1,0 0,0 0,9 5,5 9,6 0 0 6 3 N 1031,5 3,1 0 0,2
12.01.2019 02:00:00 1,0 0,0 0,7 5,5 9,6 3 2 5 3 N 1031,3 1,8 0 0,2
12.01.2019 01:00:00 0,9 -0,1 0,4 5,5 9,6 2 1 8 4 NE 1031,3 2,9 0 0,2
12.01.2019 00:00:00 0,7 -0,5 0,1 5,5 9,6 6 3 8 5 E 1031,2 2,5 0 0,0
11.01.2019 23:00:00 0,4 -0,6 0,1 5,5 9,6 4 2 10 5 W 1031,3 3,3 0 0,0
11.01.2019 22:00:00 0,4 -0,7 -0,1 5,5 9,6 3 1 7 4 NNE 1031,5 1,5 0 0,0
11.01.2019 21:00:00 0,2 -0,9 -0,5 5,5 9,6 8 4 14 8 SSE 1031,3 2,5 0 0,0
11.01.2019 20:00:00 0,2 -0,9 -0,4 5,5 9,6 7 4 9 5 SE 1031,2 3,4 0 0,0
11.01.2019 19:00:00 0,3 -1,0 -0,1 5,5 9,6 2 1 8 5 SSE 1031,3 2,7 0 0,2
11.01.2019 18:00:00 0,9 -1,3 0,5 5,5 9,6 6 4 11 6 ENE 1030,9 4,8 0 0,0
11.01.2019 17:00:00 1,6 -2,2 1,8 5,5 9,6 3 2 13 7 N 1030,6 12 0 0,0
11.01.2019 16:00:00 1,9 -2,2 2,9 5,5 9,6 9 5 19 10 ENE 1030,0 13 0 0,0
11.01.2019 15:00:00 2,2 -2,1 3,9 5,5 9,6 10 5 21 11 ENE 1029,6 12 19 0,0
11.01.2019 14:00:00 2,6 -1,9 6,3 5,5 9,6 10 6 21 12 ENE 1029,5 15 60 0,0
11.01.2019 13:00:00 2,1 -2,6 5,7 5,5 9,6 11 6 23 12 NNE 1030,0 12 60 0,0
11.01.2019 12:00:00 1,3 -3,4 3,1 5,6 9,6 12 6 20 11 NE 1030,7 12 60 0,0
11.01.2019 11:00:00 0,1 -3,5 -0,3 5,6 9,6 6 4 11 6 ENE 1030,9 15 12 0,0
11.01.2019 10:00:00 -1,0 -4,0 -1,4 5,6 9,6 4 2 10 5 ENE 1030,7 15 0 0,0
11.01.2019 09:00:00 -1,4 -4,2 -1,5 5,6 9,6 7 4 17 9 NE 1030,2 16 0 0,0
11.01.2019 08:00:00 -1,0 -4,5 -1,3 5,6 9,6 8 5 13 7 N 1029,5 21 0 0,0
11.01.2019 07:00:00 -1,0 -4,5 -1,2 5,6 9,6 10 5 18 10 N 1029,3 26 0 0,0
11.01.2019 06:00:00 -0,9 -4,1 -3,7 5,7 9,7 7 4 12 7 N 1028,9 27 0 0,0
11.01.2019 05:00:00 -1,7 -4,0 -3,4 5,7 9,7 4 2 10 5 NE 1029,0 20 0 0,0
11.01.2019 04:00:00 -1,5 -4,2 -2,6 5,7 9,6 6 3 9 5 NNE 1028,8 22 0 0,0
11.01.2019 03:00:00 -0,4 -4,3 -1,0 5,7 9,6 6 4 14 7 NE 1028,6 27 0 0,0
11.01.2019 02:00:00 -0,1 -4,2 -0,3 5,7 9,7 8 4 17 9 NNW 1028,3 33 0 0,0
11.01.2019 01:00:00 0,0 -4,3 -0,5 5,7 9,6 9 5 24 13 NNW 1028,1 35 0 0,0
11.01.2019 00:00:00 0,2 -4,1 0,0 5,7 9,7 10 5 22 12 NNW 1028,0 35 0 0,0
10.01.2019 23:00:00 0,5 -4,0 0,3 5,7 9,6 12 7 23 13 N 1027,8 30 0 0,0
10.01.2019 22:00:00 0,6 -3,0 0,4 5,7 9,7 11 6 22 12 N 1027,7 23 0 0,0
10.01.2019 21:00:00 0,7 -3,0 0,3 5,7 9,7 11 6 18 10 N 1027,7 24 0 0,0
10.01.2019 20:00:00 0,5 -3,4 0,3 5,7 9,7 11 6 31 17 N 1027,3 30 0 0,0
10.01.2019 19:00:00 0,7 -3,6 0,5 5,8 9,7 15 8 29 15 N 1027,0 32 0 0,0
10.01.2019 18:00:00 0,9 -3,8 0,7 5,8 9,7 16 9 35 19 NNW 1026,5 35 0 0,0
10.01.2019 17:00:00 1,2 -3,7 1,1 5,8 9,7 18 10 35 19 NNW 1026,2 34 0 0,0

tt = Température de l'air
td = dewpoint
tt 5cm = Température de l'air 5cm
tt -20cm = Température de l'air -20cm
tt -100cm = Température de l'air -100cm
ff = Vitesse du vent
fx = gusts
dd = Direction du vent
ppp = reduced air pressure
vv = visibility
sd = Ensoleillement
rr = Quantités de précipitations

stations d'obs. à proximité